www.pogodaiklimat.ru

Погода и климат >> Архив погоды >> Парагвай >> Mariscal Estigar


ПОГОДА в Mariscal Estigar

  • Прогноз погоды в Mariscal Estigar
  • Монитор погоды в Mariscal Estigar
  • Климат города

АРХИВ ПОГОДЫ в Mariscal Estigar

Время (UTC), дата Ветер
(напр.,м/с)
 
Видим.   Явления Облачность Т
(С)
Тd
(С)
f
(%)
Тe
(С)
Тes
(С)
Комфортность P
(гПа)
Po
(гПа)
Тmin
(С)
Tmax
(С)
R
(мм)
R24
(мм)
S
(см)
09 14.04 ЮЗ 2 10 км слабая морось 10/10 180 м
[Frnb Cs]
+14.4 +13.8 96 +14 +14 1021.8 1001.7 0.1
12 14.04 Ю 3 20 км 10/10 300 м
[St]
+15.0 +14.7 98 +14 +14 1023.3 1003.2 +14.4 0.1
15 14.04 Ю 2 20 км 10/10 300 м
[St]
+17.0 +15.4 90 +17 +17 1023.6 1003.7
18 14.04 ЮЗ 2 20 км 10/10 360 м
[Sc]
+20.4 +18.8 91 +25 +25 комфорт 1021.4 1001.7
00 15.04 Ю 2 20 км 10/10 300 м
[St]
+18.4 +17.5 94 +20 +20 1021.9 1002.0 +20.6
09 15.04 ЮЗ 4 20 км 10/8 480 м
[Sc Ac As]
+18.8 +17.6 93 +20 +20 1022.0 1002.2
12 15.04 ЮЗ 3 20 км 10/10 300 м
[St]
+19.6 +18.5 93 +23 +23 комфорт 1023.5 1003.8 +15.0
18 15.04 Ю 2 20 км 6/6 600 м
[Cu Sc]
+27.6 +20.8 66 +34 +39 очень
душно
1020.4 1001.2
21 15.04 Ю 2 20 км 4/4 900 м
[Cu hum]
+27.8 +20.5 65 +35 +35 очень
душно
1018.3 999.1
00 16.04 штиль 0 20 км 3/3 750 м
[Sc]
+23.2 +21.4 90 +31 +31 очень
душно
1020.1 1000.6 +28.5
12 16.04 штиль 0 20 км в посл. час дождь 5/5 600 м
[Sc]
+20.2 +19.9 98 +24 +26 комфорт 1020.8 1001.3 +19.0 0.0
15 16.04 ЮВ 2 20 км 5/5 1000 м
[Cu med, cong]
+27.0 +21.0 70 +34 +42 очень
душно
1020.1 1000.6
18 16.04 ЮВ 2 20 км 6/6 1000 м
[Cu med, cong]
+31.0 +20.5 54 +38 +43 очень
душно
1018.9 999.4
21 16.04 ЮВ 1 20 км 4/4 1000 м
[Cu med, cong]
+31.0 +22.2 60 +40 +41 очень
душно
1017.3 997.8
00 17.04 штиль 0 20 км ясно +27.0 +22.6 77 +36 +36 очень
душно
1017.9 998.4 +32.0
03 17.04 штиль 0 20 км ясно +22.0 +20.4 91 +28 +28 душно 1019.1 999.6
06 17.04 штиль 0 20 км ясно +21.6 +20.4 93 +27 +27 душно 1021.0 1002.0
09 17.04 штиль 0 20 км ясно +21.2 +19.5 90 +26 +26 душно 1020.9 1001.4
12 17.04 В 1 20 км ясно +21.4 +19.2 87 +26 +30 душно 1021.4 1001.9 +19.5
15 17.04 С 5 20 км 4/4 1000 м
[Cu hum]
+29.0 +21.8 65 +37 +41 очень
душно
1018.5 1001.0
18 17.04 В 3 20 км 6/6 1000 м
[Cu med, cong]
+31.0 +22.7 61 +41 +44 опасность
перегрева
1014.8 997.3
21 17.04 В 2 20 км 4/4 1000 м
[Cu med, cong]
+30.0 +22.7 65 +40 +40 очень
душно
1014.4 996.5
00 18.04 штиль 0 20 км ясно +25.4 +20.4 74 +31 +31 очень
душно
1015.2 997.3 +33.0
09 18.04 штиль 0 20 км ясно +19.0 +18.7 98 +21 +21 комфорт 1016.7 998.1
12 18.04 В 1 20 км ясно +21.0 +19.4 91 +27 +30 душно 1018.4 1000.1 +19.2
15 18.04 В 2 20 км 6/5 1000 м
[Cu med, cong Ac und]
+29.0 +21.7 65 +37 +44 очень
душно
1017.6 1000.1
18 18.04 СВ 2 20 км 6/6 1000 м
[Cu med, cong]
+31.0 +22.3 60 +40 +45 очень
душно
1014.0 996.6
21 18.04 СВ 1 20 км в посл. час дождь 5/5 1000 м
[Cu med, cong]
+28.0 +22.1 70 +36 +37 очень
душно
1012.9 995.4 0.0
00 19.04 СВ 1 20 км ясно +26.0 +21.5 76 +33 +33 очень
душно
1013.6 995.8 +33.0
03 19.04 штиль 0 20 км ясно +22.0 +19.9 88 +28 +28 душно 1015.3 997.1
09 19.04 СВ 2 20 км ясно +21.4 +19.4 88 +26 +26 душно 1015.3 997.0
12 19.04 СВ 5 20 км ясно +23.2 +21.5 90 +31 +33 очень
душно
1016.3 996.0 +21.0
15 19.04 СВ 6 20 км 5/5 1000 м
[Cu med, cong]
+29.0 +21.6 64 +37 +39 очень
душно
1014.4 996.9
18 19.04 СВ 6 20 км 8/8 1000 м
[Cu med, cong]
+33.0 +22.9 55 +43 +44 опасность
перегрева
1011.8 994.5
21 19.04 СВ 5 20 км 5/5 1000 м
[Cu med, cong]
+34.0 +21.1 47 +41 +42 опасность
перегрева
1009.8 992.5
00 20.04 СВ 1 20 км ясно +27.0 +19.3 63 +33 +33 очень
душно
1012.3 994.6 +34.0
03 20.04 СВ 3 20 км ясно +26.0 +21.5 76 +33 +33 очень
душно
1014.0 996.2
09 20.04 СВ 1 20 км ясно +20.0 +18.4 91 +24 +24 комфорт 1014.7 996.4
12 20.04 СВ 2 20 км ясно +25.0 +19.9 73 +31 +33 очень
душно
1015.0 996.9 +20.0
15 20.04 СВ 5 20 км 1/1 1000 м
[Cu hum]
+29.4 +24.5 75 +42 +48 опасность
перегрева
1014.4 996.9
18 20.04 С 5 20 км 8/8 1000 м
[Cu med, cong]
+33.2 +24.6 61 +46 +47 опасность
перегрева
1010.8 993.5
21 20.04 С 5 20 км 5/5 1000 м
[Cu med, cong]
+31.4 +23.6 63 +42 +42 опасность
перегрева
1010.0 992.5
00 21.04 С 2 20 км 3/3 1000 м
[Sc diur, vesp]
+26.6 +21.4 73 +34 +34 очень
душно
1011.0 993.3 +33.5
03 21.04 СВ 2 20 км ясно +25.0 +20.4 76 +31 +31 очень
душно
1012.5 994.6

 

Местоположение метеостанции Mariscal Estigar (Парагвай): широта -22.01 долгота -60.60 высота над уровнем моря 172 м.

В архиве по умолчанию представлена погода в Mariscal Estigar за последнюю неделю. Архивные данные за месяц целиком и за предыдущие месяцы, начиная с января 2011 года, Вы можете получить, выбрав интересующий диапазон дат из раскрывающегося списка и нажав кнопку "Ввод!".


*Определитесь, кто Вы:
робот инопланетянин человек

Внимание! Время в таблицах - всемирное. Для получения местного времени необходимо прибавить поправку, которая в Mariscal Estigar равна -4 ч.

Смотрите также архив погоды в соседних городах и на ближайших метеорологических станциях:

Погода в Prats-Gil (Парагвай) (120 км)
Погода в Pozo Colorado (Парагвай) (232 км)
Погода в Puerto Casado (Парагвай) (284 км)
Погода в Las Lomitas (Аргентина) (299 км)
Погода в Villamontes (Боливия) (307 км)
Погода в Yacuiba (Боливия) (315 км)
Погода в Tartagal (Аргентина) (336 км)
Погода в Gral. Bruguez (Парагвай) (355 км)
Погода в Concepcion (Парагвай) (373 км)
Погода в Camiri (Боливия) (378 км)

Пояснения к столбцам:

Ветер - указаны скорость ветра в м/с - средняя за 10 мин, порывы в срок и между сроками (в фигурных скобках) и направление, откуда дует ветер: С - северный, СВ - северо-восточный, В - восточный, ЮВ - юго-восточный, Ю - южный, ЮЗ - юго-западный, З - западный, СЗ - северо-западный.
Видимость - горизонтальная дальность видимости в метрах или километрах. При видимости от 1 до 10 км при отсутствии осадков обычно наблюдается дымка, при ухудшении видимости до 1 км и менее - туман. В сухую погоду видимость может ухудшаться дымом, пылью или мглою.
Явления - указаны атмосферные явления, наблюдавшиеся в срок или в последний час перед сроком; фигурными скобками обозначены явления, наблюдавшиеся между сроками (за 1-3 часа до срока); квадратными скобками обозначены град или гололедные отложения с указанием их диаметра в мм.
Облачность - указаны через наклонную черту общая и нижняя облачность в баллах и высота нижней границы облаков в метрах; квадратными скобками обозначены формы облаков: Ci - перистые, Cs - перисто-слоистые, Cc - перисто-кучевые, Ac - высококучевые, As - высокослоистые, Sc - слоисто-кучевые, Ns - слоисто-дождевые, Cu - кучевые, Cb - кучево-дождевые. Подробнее классификацию облаков см. в Атласе облаков (PDF).
T - Температура воздуха - температура, измеренная на высоте 2 м над землей.
Td - Температура точки росы - температура, при понижении до которой содержащийся в воздухе водяной пар достигнет насыщения.
f - Относительная влажность воздуха - влажноcть воздуха, измеренная на высоте 2 м над землей.
Te - Эффективная температура - температура, которую ощущает одетый по сезону человек в тени. Характеристика душности погоды. При расчете учитывается влияние влажности воздуха и скорости ветра на теплоощущения человека.
Tes - Эффективная температура на солнце - температура, которую ощущает человек, с поправкой на солнечный нагрев. Характеристика знойности погоды. Зависит от высоты солнца над горизонтом, облачности и скорости ветра. Ночью, в пасмурную погоду, а также при ветре 12 м/с и более поправка равна нулю.
P - Атмосферное давление - приведенное к уровню моря атмосферное давление.
Po - Атмосферное давление - измеренное на уровне метеостанции атмосферное давление.
Tmin - Минимальная температура - минимум температуры воздуха на высоте 2 м над землей.
Tmax - Максимальная температура - максимум температуры воздуха на высоте 2 м над землей.
R - Количество осадков - Количество выпавших осадков за период времени, мм. При наведении курсора мыши на число - период времени, за который выпало указанное количество осадков.
R24 - Количество осадков - Количество выпавших осадков за 24 часа, мм.
S - Снежный покров - Высота снежного покрова, см. При наведении курсора мыши на число - состояние снежного покрова и степень покрытия местности в баллах.